Tulsa, OK

9:23 AM CDT on June 24, 2017 (GMT -0500)
Tulsa International

Weather History for KTUL - March, 2013

Change the Weather History Date:

Tuesday, March 12, 2013

  Actual Average Record
Temperature  
Mean Temperature 47 °F 50 °F  
Max Temperature 61 °F 61 °F 91 °F (1967)
Min Temperature 33 °F 39 °F -3 °F (1948)
Degree Days  
Heating Degree Days 18 15  
Month to date heating degree days 231 202  
Since 1 July heating degree days 2903 3113  
Cooling Degree Days 0 0  
Month to date cooling degree days 0 0  
Year to date cooling degree days 2 1  
Moisture  
Dew Point 28 °F    
Average Humidity 52    
Maximum Humidity 76    
Minimum Humidity 27    
Precipitation  
Precipitation T in 0.10 in 1.85 in (1902)
Month to date precipitation 0.27 1.20  
Year to date precipitation 4.99 4.71  
Sea Level Pressure  
Sea Level Pressure 30.21 in    
Wind  
Wind Speed 7 mph (NNW)    
Max Wind Speed 21 mph    
Max Gust Speed 26 mph    
Visibility 10 miles    
Events Rain    
T = Trace of Precipitation, MM = Missing Value Source: NWS Daily Summary

Daily Weather History Graph

Daily Weather History Graph

Search for Another Location

Airport or City:

Trip Planner

Search our weather history database for the weather conditions in past years. The results will help you decide how hot, cold, wet, or windy it might be!

Date:

Astronomy

Mar. 12, 2013 Rise Set
Actual Time 7:38 AM CDT 7:28 PM CDT
Civil Twilight 7:12 AM CDT 7:54 PM CDT
Nautical Twilight 6:42 AM CDT 8:24 PM CDT
Astronomical Twilight 6:12 AM CDT 8:54 PM CDT
Moon 7:48 AM CDT (3/12) 8:41 PM CDT (3/12)
Length of Visible Light 12h 41m
Length of Day
11h 50m
New Moon, 1% of the Moon is Illuminated
Mar 12
New Moon
Mar 19
First Quarter
Mar 27
Full
Apr 2
Last Quarter
Apr 10
New

Hourly Weather History & Observations

Time (CDT) Temp. Windchill Dew Point Humidity Pressure Visibility Wind Dir Wind Speed Gust Speed Precip Events Conditions
12:53 AM 36.0 °F 32.1 °F 23.0 °F 59% 30.07 in 10.0 mi South 4.6 mph - N/A   Clear
1:53 AM 34.0 °F - 27.0 °F 75% 30.07 in 10.0 mi Calm Calm - N/A   Clear
2:53 AM 37.0 °F 34.5 °F 26.1 °F 65% 30.07 in 10.0 mi South 3.5 mph - N/A   Clear
3:53 AM 33.1 °F 27.7 °F 27.0 °F 78% 30.11 in 10.0 mi NNW 5.8 mph - N/A   Clear
4:53 AM 35.1 °F 31.0 °F 28.9 °F 78% 30.14 in 10.0 mi NW 4.6 mph - N/A   Mostly Cloudy
5:53 AM 37.9 °F - 25.0 °F 60% 30.17 in 10.0 mi Calm Calm - N/A   Overcast
6:53 AM 37.0 °F - 30.0 °F 76% 30.17 in 10.0 mi Calm Calm - 0.00 in Rain Light Rain
7:53 AM 39.0 °F 35.7 °F 33.1 °F 79% 30.19 in 10.0 mi SSW 4.6 mph - 0.00 in Rain Light Rain
8:53 AM 41.0 °F 39.0 °F 35.1 °F 79% 30.23 in 10.0 mi NNW 3.5 mph - 0.00 in   Overcast
9:53 AM 45.0 °F - 37.9 °F 76% 30.24 in 10.0 mi Calm Calm - 0.00 in   Overcast
10:53 AM 50.0 °F - 34.0 °F 54% 30.25 in 10.0 mi North 9.2 mph - N/A   Scattered Clouds
11:53 AM 53.1 °F - 30.0 °F 41% 30.26 in 10.0 mi North 8.1 mph - N/A   Scattered Clouds
12:53 PM 55.0 °F - 28.9 °F 37% 30.26 in 10.0 mi North 9.2 mph - N/A   Scattered Clouds
1:53 PM 57.0 °F - 28.0 °F 33% 30.25 in 10.0 mi Variable 5.8 mph - N/A   Scattered Clouds
2:53 PM 57.9 °F - 28.9 °F 33% 30.23 in 10.0 mi NNW 6.9 mph - N/A   Partly Cloudy
3:53 PM 60.1 °F - 28.0 °F 30% 30.22 in 10.0 mi North 6.9 mph - N/A   Partly Cloudy
4:53 PM 60.1 °F - 27.0 °F 28% 30.21 in 10.0 mi NW 16.1 mph - N/A   Partly Cloudy
5:53 PM 59.0 °F - 26.1 °F 28% 30.21 in 10.0 mi NNW 19.6 mph - N/A   Clear
6:53 PM 55.9 °F - 27.0 °F 33% 30.23 in 10.0 mi NW 11.5 mph 21.9 mph N/A   Partly Cloudy
7:53 PM 50.0 °F - 28.0 °F 43% 30.27 in 10.0 mi NNW 9.2 mph - N/A   Clear
8:53 PM 48.0 °F - 27.0 °F 44% 30.30 in 10.0 mi North 9.2 mph - N/A   Clear
9:53 PM 46.9 °F - 25.0 °F 42% 30.32 in 10.0 mi North 8.1 mph - N/A   Clear
10:53 PM 42.8 °F 39.3 °F 24.8 °F 49% 30.34 in 10.0 mi North 5.8 mph - N/A   Clear
11:53 PM 41.0 °F 38.0 °F 24.1 °F 51% 30.36 in 10.0 mi NW 4.6 mph - N/A   Clear